sat.trackr.live / text

‹ back to catalog

SHIYAN-27 OBJECT C

NORAD 63601 · 2025-078C

PAYLOAD ACTIVE UNKNOWN

§ Identity

Operator
Country
PRC
Launch date
2025-04-18
Launch site
TAISC
Launch vehicle
Mass (kg)
RCS (m²)

External: N2YO · Heavens-Above · Gunter

§ Orbital elements

Epoch: 2026-05-25T03:50:48.327648Z

Period
106.10 min
Inclination
99.6907°
Eccentricity
0.0001127
Mean motion
13.57243844 rev/d
Perigee alt
1,044.9 km
Apogee alt
1,046.6 km
Semi-major
7,423.9 km
B*
7.8405e-5
RAAN
152.7994°
Arg perigee
95.2068°
Mean anomaly
264.9199°
Rev number
5,441

§ Raw data

SHIYAN-27 OBJECT C1 63601U 25078C   26145.16028157  .00000012  00000+0  78405-4 0  99962 63601  99.6907 152.7994 0001127  95.2068 264.9199 13.57243844 54411

JSON: /api/v1/satellites/63601 · /tle

For live sub-satellite position, see the globe view (requires WebGL).

§ Visibility from observer

Set your observer location to see the next 7 days of passes ≥ 10°. The values pass through the URL so the page stays shareable.

No JS? Fill the form by hand. The geolocation button needs JavaScript.